Change the Weather History Date:

Wednesday, March 19, 2014

  Actual Average Record
Temperature  
Mean Temperature 61 °F 59 °F  
Max Temperature 71 °F 72 °F 88 °F (1955)
Min Temperature 50 °F 47 °F 32 °F (1949)
Degree Days  
Heating Degree Days 4 6  
Month to date heating degree days 189 148  
Since 1 July heating degree days 1854 1707  
Cooling Degree Days 0 1  
Month to date cooling degree days 1 18  
Year to date cooling degree days 10 28  
Growing Degree Days 10 (Base 50)    
Moisture  
Dew Point 49 °F    
Average Humidity 78    
Maximum Humidity 100    
Minimum Humidity 42    
Precipitation  
Precipitation 0.00 in 0.19 in 4.72 in (1933)
Month to date precipitation 2.64 3.18  
Year to date precipitation 10.37 12.58  
Sea Level Pressure  
Sea Level Pressure 30.12 in    
Wind  
Wind Speed 5 mph (SSE)    
Max Wind Speed 9 mph    
Max Gust Speed -    
Visibility 10 miles    
Events      
T = Trace of Precipitation, MM = Missing Value Source: NWS Daily Summary

Daily Weather History Graph

Daily Weather History Graph

Search for Another Location

Airport or City:

Trip Planner

Search our weather history database for the weather conditions in past years. The results will help you decide how hot, cold, wet, or windy it might be!

Date:

Astronomy

Mar. 19, 2014 Rise Set
Actual Time 6:46 AM CDT 6:52 PM CDT
Civil Twilight 6:22 AM CDT 7:16 PM CDT
Nautical Twilight 5:54 AM CDT 7:45 PM CDT
Astronomical Twilight 5:26 AM CDT 8:13 PM CDT
Moon 9:56 PM CDT (3/19) 8:24 AM CDT (3/19)
Length of Visible Light 12h 54m
Length of Day
12h 05m
Waning Gibbous, 91% of the Moon is Illuminated
Mar 19
Waning Gibbous
Mar 23
Last Quarter
Mar 30
New
Apr 7
First Quarter
Apr 15
Full

Hourly Weather History & Observations

Time (CDT) Temp. Dew Point Humidity Pressure Visibility Wind Dir Wind Speed Gust Speed Precip Events Conditions
12:53 AM 51.1 °F 48.9 °F 92% 30.09 in 10.0 mi ESE 6.9 mph - N/A   Overcast
1:18 AM 50.0 °F 48.2 °F 94% 30.09 in 10.0 mi ESE 5.8 mph - N/A   Scattered Clouds
1:27 AM 50.0 °F 48.2 °F 94% 30.09 in 10.0 mi ESE 5.8 mph - N/A   Mostly Cloudy
1:53 AM 51.1 °F 48.9 °F 92% 30.09 in 10.0 mi ESE 6.9 mph - N/A   Overcast
2:29 AM 51.8 °F 48.2 °F 88% 30.10 in 10.0 mi ESE 4.6 mph - N/A   Overcast
2:41 AM 51.8 °F 48.2 °F 88% 30.10 in 10.0 mi SE 5.8 mph - N/A   Overcast
2:53 AM 51.1 °F 48.9 °F 92% 30.09 in 10.0 mi ESE 4.6 mph - N/A   Overcast
3:21 AM 51.8 °F 48.2 °F 88% 30.09 in 10.0 mi SE 4.6 mph - N/A   Overcast
3:32 AM 51.8 °F 50.0 °F 94% 30.09 in 10.0 mi ESE 3.5 mph - N/A   Overcast
3:53 AM 51.1 °F 50.0 °F 96% 30.09 in 10.0 mi ESE 5.8 mph - N/A   Overcast
4:09 AM 51.8 °F 50.0 °F 94% 30.10 in 10.0 mi ESE 4.6 mph - N/A   Overcast
4:19 AM 51.8 °F 50.0 °F 94% 30.10 in 10.0 mi East 4.6 mph - N/A   Overcast
4:53 AM 51.1 °F 50.0 °F 96% 30.10 in 10.0 mi ESE 4.6 mph - N/A   Overcast
5:09 AM 51.8 °F 50.0 °F 94% 30.11 in 9.0 mi SE 4.6 mph - N/A   Overcast
5:20 AM 51.8 °F 50.0 °F 94% 30.11 in 8.0 mi SSE 3.5 mph - N/A   Overcast
5:53 AM 51.1 °F 50.0 °F 96% 30.12 in 8.0 mi ESE 4.6 mph - N/A   Overcast
6:09 AM 51.8 °F 50.0 °F 94% 30.12 in 8.0 mi East 4.6 mph - N/A   Overcast
6:53 AM 52.0 °F 50.0 °F 93% 30.13 in 8.0 mi SE 4.6 mph - N/A   Overcast
7:36 AM 51.8 °F 51.8 °F 100% 30.14 in 7.0 mi ESE 5.8 mph - N/A   Overcast
7:53 AM 52.0 °F 51.1 °F 97% 30.14 in 8.0 mi Calm Calm - N/A   Overcast
8:31 AM 53.6 °F 51.8 °F 94% 30.16 in 10.0 mi Calm Calm - N/A   Overcast
8:53 AM 54.0 °F 51.1 °F 90% 30.17 in 10.0 mi Calm Calm - N/A   Overcast
9:53 AM 57.0 °F 46.9 °F 69% 30.19 in 10.0 mi SSW 5.8 mph - N/A   Mostly Cloudy
10:53 AM 60.1 °F 46.9 °F 62% 30.18 in 10.0 mi WSW 4.6 mph - N/A   Mostly Cloudy
11:00 AM 60.8 °F 46.4 °F 59% 30.19 in 10.0 mi WNW 4.6 mph - N/A   Scattered Clouds
11:07 AM 60.8 °F 46.4 °F 59% 30.18 in 10.0 mi West 8.1 mph - N/A   Mostly Cloudy
11:51 AM 62.6 °F 48.2 °F 59% 30.17 in 10.0 mi WSW 6.9 mph - N/A   Mostly Cloudy
11:53 AM 63.0 °F 46.9 °F 56% 30.17 in 10.0 mi WSW 5.8 mph - N/A   Scattered Clouds
12:53 PM 64.9 °F 48.0 °F 54% 30.14 in 10.0 mi WNW 4.6 mph - N/A   Clear
1:53 PM 66.9 °F 46.0 °F 47% 30.11 in 10.0 mi Calm Calm - N/A   Clear
2:53 PM 69.1 °F 46.9 °F 45% 30.08 in 10.0 mi SW 5.8 mph - N/A   Clear
3:53 PM 70.0 °F 46.9 °F 44% 30.06 in 10.0 mi Variable 3.5 mph - N/A   Clear
4:53 PM 70.0 °F 46.0 °F 42% 30.06 in 10.0 mi Calm Calm - N/A   Clear
5:53 PM 69.1 °F 46.9 °F 45% 30.06 in 10.0 mi SW 4.6 mph - N/A   Clear
6:53 PM 66.9 °F 46.0 °F 47% 30.08 in 10.0 mi West 3.5 mph - N/A   Clear
7:53 PM 61.0 °F 53.1 °F 75% 30.09 in 10.0 mi Calm Calm - N/A   Clear
8:53 PM 57.9 °F 48.9 °F 72% 30.10 in 10.0 mi Calm Calm - N/A   Clear
9:53 PM 59.0 °F 51.1 °F 75% 30.12 in 10.0 mi SW 8.1 mph - N/A   Clear
10:53 PM 57.0 °F 52.0 °F 83% 30.12 in 10.0 mi SW 9.2 mph - N/A   Clear
11:53 PM 55.9 °F 51.1 °F 84% 30.12 in 10.0 mi WSW 6.9 mph - N/A   Clear